Weather History for Cairo, IL

Change the Weather History Date:

Saturday, February 16, 2013

  Actual Average Record
Temperature  
Mean Temperature 32 °F -  
Max Temperature 41 °F 45 °F 71 °F (1961)
Min Temperature 24 °F 30 °F 3 °F (1958)
Degree Days  
Heating Degree Days 32    
Moisture  
Dew Point 15 °F    
Average Humidity 53    
Maximum Humidity 80    
Minimum Humidity 24    
Precipitation  
Precipitation 0.00 in - - ()
Sea Level Pressure  
Sea Level Pressure 30.22 in    
Wind  
Wind Speed 5 mph (NW)    
Max Wind Speed 16 mph    
Max Gust Speed 20 mph    
Visibility 10 miles    
Events      
Averages and records for this station are not official NWS values.
T = Trace of Precipitation, MM = Missing Value Source: NWS Daily Summary

Daily Weather History Graph

Daily Weather History Graph

Search for Another Location

Airport:

Trip Planner

Search our weather history database for the weather conditions in past years. The results will help you decide how hot, cold, wet, or windy it might be!

Date:

Astronomy

Feb. 16, 2013 Rise Set
Actual Time 6:44 AM CST 5:38 PM CST
Civil Twilight 6:17 AM CST 6:04 PM CST
Nautical Twilight 5:47 AM CST 6:35 PM CST
Astronomical Twilight 5:17 AM CST 7:05 PM CST
Moon 10:07 AM CST (2/16) No Moon Set
Length of Visible Light 11h 47m
Length of Day
10h 54m
Waxing Crescent, 39% of the Moon is Illuminated
Feb 16
Waxing Crescent
Feb 17
First Quarter
Feb 25
Full
Mar 4
Last Quarter
Mar 11
New

Hourly Weather History & Observations

Time (CST) Temp. Windchill Dew Point Humidity Pressure Visibility Wind Dir Wind Speed Gust Speed Precip Events Conditions
12:15 AM 28.4 °F 24.6 °F 21.2 °F 74% 30.21 in 10.0 mi WNW 3.5 mph - N/A   Clear
12:35 AM 28.4 °F 24.6 °F 19.4 °F 69% 30.21 in 10.0 mi West 3.5 mph - N/A   Clear
12:55 AM 28.4 °F 24.6 °F 19.4 °F 69% 30.21 in 10.0 mi WSW 3.5 mph - N/A   Clear
1:15 AM 32.0 °F 27.5 °F 21.2 °F 64% 30.21 in 10.0 mi WSW 4.6 mph - N/A   Clear
1:35 AM 30.2 °F - 21.2 °F 69% 30.20 in 10.0 mi Calm Calm - N/A   Clear
1:55 AM 30.2 °F 25.4 °F 21.2 °F 69% 30.20 in 10.0 mi WSW 4.6 mph - N/A   Clear
2:15 AM 30.2 °F 25.4 °F 21.2 °F 69% 30.20 in 10.0 mi West 4.6 mph - N/A   Clear
2:35 AM 30.2 °F 26.7 °F 21.2 °F 69% 30.19 in 10.0 mi WSW 3.5 mph - N/A   Clear
2:55 AM 28.4 °F 23.3 °F 19.4 °F 69% 30.19 in 10.0 mi West 4.6 mph - N/A   Clear
3:15 AM 28.4 °F 22.2 °F 21.2 °F 74% 30.20 in 10.0 mi West 5.8 mph - N/A   Clear
3:35 AM 30.2 °F 25.4 °F 21.2 °F 69% 30.20 in 10.0 mi West 4.6 mph - N/A   Clear
3:55 AM 28.4 °F 21.2 °F 19.4 °F 69% 30.20 in 10.0 mi NW 6.9 mph - N/A   Scattered Clouds
4:15 AM 30.2 °F 21.3 °F 19.4 °F 64% 30.20 in 10.0 mi NW 10.4 mph - N/A   Mostly Cloudy
4:35 AM 30.2 °F 21.3 °F 19.4 °F 64% 30.21 in 10.0 mi NW 10.4 mph - N/A   Mostly Cloudy
5:15 AM 28.4 °F 19.7 °F 19.4 °F 69% 30.21 in 10.0 mi NNW 9.2 mph - N/A   Clear
5:35 AM 28.4 °F 21.2 °F 19.4 °F 69% 30.21 in 10.0 mi NNW 6.9 mph - N/A   Clear
5:55 AM 28.4 °F 22.2 °F 19.4 °F 69% 30.21 in 10.0 mi NNW 5.8 mph - N/A   Clear
6:15 AM 28.4 °F 22.2 °F 19.4 °F 69% 30.22 in 10.0 mi NNW 5.8 mph - N/A   Clear
6:35 AM 28.4 °F 19.1 °F 19.4 °F 69% 30.22 in 10.0 mi North 10.4 mph - N/A   Clear
6:55 AM 28.4 °F 18.5 °F 19.4 °F 69% 30.23 in 10.0 mi NNW 11.5 mph - N/A   Clear
7:15 AM 28.4 °F 19.1 °F 19.4 °F 69% 30.24 in 10.0 mi NNW 10.4 mph - N/A   Clear
7:35 AM 30.2 °F 21.9 °F 19.4 °F 64% 30.24 in 10.0 mi NNW 9.2 mph - N/A   Clear
7:55 AM 30.2 °F 20.8 °F 19.4 °F 64% 30.25 in 10.0 mi NNW 11.5 mph - N/A   Clear
8:15 AM 30.2 °F 21.9 °F 19.4 °F 64% 30.25 in 10.0 mi North 9.2 mph - N/A   Clear
8:35 AM 30.2 °F 21.3 °F 19.4 °F 64% 30.25 in 10.0 mi North 10.4 mph - N/A   Clear
8:55 AM 32.0 °F 23.0 °F 19.4 °F 60% 30.25 in 10.0 mi NNW 11.5 mph - N/A   Clear
9:15 AM 32.0 °F 24.8 °F 17.6 °F 55% 30.25 in 10.0 mi North 8.1 mph - N/A   Mostly Cloudy
9:35 AM 32.0 °F 23.0 °F 17.6 °F 55% 30.25 in 10.0 mi North 11.5 mph - N/A   Scattered Clouds
12:15 PM 37.4 °F 31.4 °F 14.0 °F 38% 30.24 in 10.0 mi NNW 8.1 mph - N/A   Clear
12:35 PM 39.2 °F 32.0 °F 14.0 °F 36% 30.23 in 10.0 mi NW 11.5 mph - N/A   Clear
12:55 PM 39.2 °F 32.5 °F 12.2 °F 33% 30.23 in 10.0 mi NNW 10.4 mph 19.6 mph N/A   Clear
1:15 PM 39.2 °F 32.0 °F 12.2 °F 33% 30.22 in 10.0 mi WNW 11.5 mph 16.1 mph N/A   Scattered Clouds
1:35 PM 39.2 °F 33.6 °F 12.2 °F 33% 30.21 in 10.0 mi NW 8.1 mph 16.1 mph N/A   Clear
1:55 PM 41.0 °F 35.2 °F 10.4 °F 29% 30.21 in 10.0 mi NW 9.2 mph 18.4 mph N/A   Clear
2:15 PM 41.0 °F 35.2 °F 10.4 °F 29% 30.21 in 10.0 mi WNW 9.2 mph 18.4 mph N/A   Clear
2:35 PM 41.0 °F 32.8 °F 10.4 °F 29% 30.20 in 10.0 mi NNW 16.1 mph - N/A   Clear
2:55 PM 41.0 °F 36.4 °F 8.6 °F 26% 30.20 in 10.0 mi NW 6.9 mph - N/A   Clear
3:15 PM 41.0 °F 34.3 °F 10.4 °F 29% 30.20 in 10.0 mi NNW 11.5 mph 16.1 mph N/A   Clear
3:35 PM 41.0 °F 35.8 °F 8.6 °F 26% 30.21 in 10.0 mi West 8.1 mph - N/A   Clear
3:55 PM 41.0 °F 34.3 °F 6.8 °F 24% 30.21 in 10.0 mi WNW 11.5 mph 16.1 mph N/A   Clear
4:15 PM 39.2 °F - 5.0 °F 24% 30.21 in 10.0 mi Calm Calm - N/A   Clear
4:35 PM 39.2 °F 35.9 °F 6.8 °F 26% 30.20 in 10.0 mi West 4.6 mph - N/A   Clear
4:55 PM 39.2 °F 35.9 °F 5.0 °F 24% 30.20 in 10.0 mi West 4.6 mph - N/A   Clear
5:15 PM 37.4 °F 33.8 °F 5.0 °F 26% 30.21 in 10.0 mi WNW 4.6 mph - N/A   Clear
5:35 PM 35.6 °F 32.8 °F 6.8 °F 30% 30.20 in 10.0 mi WNW 3.5 mph - N/A   Clear
5:55 PM 35.6 °F - 6.8 °F 30% 30.21 in 10.0 mi Calm Calm - N/A   Clear
6:15 PM 35.6 °F - 8.6 °F 33% 30.21 in 10.0 mi Calm Calm - N/A   Clear
6:35 PM 33.8 °F - 8.6 °F 35% 30.21 in 10.0 mi Calm Calm - N/A   Clear
6:55 PM 33.8 °F - 6.8 °F 32% 30.21 in 10.0 mi Calm Calm - N/A   Clear
7:15 PM 32.0 °F - 8.6 °F 38% 30.21 in 10.0 mi Calm Calm - N/A   Clear
7:35 PM 30.2 °F 26.7 °F 12.2 °F 47% 30.21 in 10.0 mi South 3.5 mph - N/A   Clear
7:55 PM 30.2 °F - 15.8 °F 55% 30.21 in 10.0 mi Calm Calm - N/A   Clear
8:15 PM 28.4 °F - 15.8 °F 59% 30.21 in 10.0 mi Calm Calm - N/A   Clear
8:35 PM 28.4 °F - 15.8 °F 59% 30.22 in 10.0 mi Calm Calm - N/A   Clear
8:55 PM 28.4 °F 24.6 °F 15.8 °F 59% 30.22 in 10.0 mi SSW 3.5 mph - N/A   Clear
9:15 PM 28.4 °F - 15.8 °F 59% 30.22 in 10.0 mi Calm Calm - N/A   Clear
9:35 PM 28.4 °F - 15.8 °F 59% 30.22 in 10.0 mi Calm Calm - N/A   Clear
9:55 PM 28.4 °F - 17.6 °F 64% 30.22 in 10.0 mi Calm Calm - N/A   Clear
10:15 PM 24.8 °F - 15.8 °F 69% 30.22 in 10.0 mi Calm Calm - N/A   Clear
10:35 PM 24.8 °F - 15.8 °F 69% 30.22 in 10.0 mi Calm Calm - N/A   Clear
10:55 PM 24.8 °F - 17.6 °F 74% 30.22 in 10.0 mi Calm Calm - N/A   Clear
11:15 PM 24.8 °F - 19.4 °F 80% 30.22 in 10.0 mi Calm Calm - N/A   Clear
11:35 PM 26.6 °F - 21.2 °F 80% 30.22 in 10.0 mi Calm Calm - N/A   Clear